Time,TemperatureF,DewpointF,PressureIn,WindDirection,WindDirectionDegrees,WindSpeedMPH,WindSpeedGustMPH,Humidity,HourlyPrecipIn,Conditions,Clouds,dailyrainin,SolarRadiationWatts/m^2,SoftwareType,DateUTC
2013-07-28 00:02:00,48.0,46.0,-100.00,North,6,4.0,9.0,94,0.00,,,0.52,0.000000,,2013-07-28 05:02:00,
2013-07-28 00:22:00,48.0,46.0,-100.00,North,8,3.0,13.0,93,0.00,,,0.51,0.000000,,2013-07-28 05:22:00,
2013-07-28 00:32:00,48.0,46.0,-100.00,North,8,3.0,13.0,93,0.00,,,0.51,0.000000,,2013-07-28 05:32:00,
2013-07-28 00:43:00,48.0,46.0,-100.00,North,8,3.0,13.0,93,0.00,,,0.51,0.000000,,2013-07-28 05:43:00,
2013-07-28 00:53:00,48.0,46.0,-100.00,North,8,3.0,13.0,93,0.00,,,0.51,0.000000,,2013-07-28 05:53:00,
2013-07-28 01:02:00,48.0,46.0,-100.00,North,8,3.0,13.0,93,0.00,,,0.51,0.000000,,2013-07-28 06:02:00,
2013-07-28 01:22:00,48.0,46.0,-100.00,NNE,28,4.0,8.0,94,0.00,,,0.51,0.000000,,2013-07-28 06:22:00,
2013-07-28 01:32:00,48.0,46.0,-100.00,NNE,28,4.0,8.0,94,0.00,,,0.51,0.000000,,2013-07-28 06:32:00,
2013-07-28 01:43:00,48.0,46.0,-100.00,NNE,28,4.0,8.0,94,0.00,,,0.51,0.000000,,2013-07-28 06:43:00,
2013-07-28 01:53:00,48.0,46.0,-100.00,NNE,28,4.0,8.0,94,0.00,,,0.51,0.000000,,2013-07-28 06:53:00,
2013-07-28 02:02:00,48.0,46.0,-100.00,NNE,28,4.0,8.0,94,0.00,,,0.51,0.000000,,2013-07-28 07:02:00,
2013-07-28 02:23:00,48.0,47.0,-100.00,North,352,3.0,6.0,95,0.00,,,0.50,0.000000,,2013-07-28 07:23:00,
2013-07-28 02:32:00,48.0,47.0,-100.00,North,352,3.0,6.0,95,0.00,,,0.50,0.000000,,2013-07-28 07:32:00,
2013-07-28 02:43:00,48.0,47.0,-100.00,North,352,3.0,6.0,95,0.00,,,0.50,0.000000,,2013-07-28 07:43:00,
2013-07-28 02:53:00,48.0,47.0,-100.00,North,352,3.0,6.0,95,0.00,,,0.50,0.000000,,2013-07-28 07:53:00,
2013-07-28 03:02:00,48.0,47.0,-100.00,North,352,3.0,6.0,95,0.00,,,0.50,0.000000,,2013-07-28 08:02:00,
2013-07-28 03:23:00,48.0,47.0,-100.00,North,3,3.0,6.0,95,0.00,,,0.50,0.000000,,2013-07-28 08:23:00,
2013-07-28 03:33:00,48.0,47.0,-100.00,North,3,3.0,6.0,95,0.00,,,0.50,0.000000,,2013-07-28 08:33:00,
2013-07-28 03:43:00,48.0,47.0,-100.00,North,3,3.0,6.0,95,0.00,,,0.50,0.000000,,2013-07-28 08:43:00,
2013-07-28 03:53:00,48.0,47.0,-100.00,North,3,3.0,6.0,95,0.00,,,0.50,0.000000,,2013-07-28 08:53:00,
2013-07-28 04:02:00,48.0,47.0,-100.00,North,3,3.0,6.0,95,0.00,,,0.50,0.000000,,2013-07-28 09:02:00,
2013-07-28 04:22:00,48.0,47.0,-100.00,NNW,342,3.0,8.0,95,0.00,,,0.50,0.000000,,2013-07-28 09:22:00,
2013-07-28 04:32:00,48.0,47.0,-100.00,NNW,342,3.0,8.0,95,0.00,,,0.50,0.000000,,2013-07-28 09:32:00,
2013-07-28 04:43:00,48.0,47.0,-100.00,NNW,342,3.0,8.0,95,0.00,,,0.50,0.000000,,2013-07-28 09:43:00,
2013-07-28 04:53:00,48.0,47.0,-100.00,NNW,342,3.0,8.0,95,0.00,,,0.50,0.000000,,2013-07-28 09:53:00,
2013-07-28 05:02:00,48.0,47.0,-100.00,NNW,342,3.0,8.0,95,0.00,,,0.50,0.000000,,2013-07-28 10:02:00,
2013-07-28 05:22:00,48.0,47.0,-100.00,NNW,338,3.0,9.0,95,0.00,,,0.49,0.000000,,2013-07-28 10:22:00,
2013-07-28 05:33:00,48.0,47.0,-100.00,NNW,338,3.0,9.0,95,0.00,,,0.49,0.000000,,2013-07-28 10:33:00,
2013-07-28 05:42:00,48.0,47.0,-100.00,NNW,338,3.0,9.0,95,0.00,,,0.49,0.000000,,2013-07-28 10:42:00,
2013-07-28 05:53:00,48.0,47.0,-100.00,NNW,338,3.0,9.0,95,0.00,,,0.49,0.000000,,2013-07-28 10:53:00,
2013-07-28 06:02:00,48.0,47.0,-100.00,NNW,338,3.0,9.0,95,0.00,,,0.49,0.000000,,2013-07-28 11:02:00,
2013-07-28 06:22:00,48.0,46.0,-100.00,North,1,3.0,8.0,94,0.00,,,0.48,1.000000,,2013-07-28 11:22:00,
2013-07-28 06:33:00,48.0,46.0,-100.00,North,1,3.0,8.0,94,0.00,,,0.48,1.000000,,2013-07-28 11:33:00,
2013-07-28 06:43:00,48.0,46.0,-100.00,North,1,3.0,8.0,94,0.00,,,0.48,1.000000,,2013-07-28 11:43:00,
2013-07-28 06:54:00,48.0,46.0,-100.00,North,1,3.0,8.0,94,0.00,,,0.48,1.000000,,2013-07-28 11:54:00,
2013-07-28 07:02:00,48.0,46.0,-100.00,North,1,3.0,8.0,94,0.00,,,0.48,1.000000,,2013-07-28 12:02:00,
2013-07-28 07:22:00,49.0,47.0,-100.00,NNE,19,4.0,14.0,93,0.00,,,0.45,13.000000,,2013-07-28 12:22:00,
2013-07-28 07:33:00,49.0,47.0,-100.00,NNE,19,4.0,14.0,93,0.00,,,0.45,13.000000,,2013-07-28 12:33:00,
2013-07-28 07:43:00,49.0,47.0,-100.00,NNE,19,4.0,14.0,93,0.00,,,0.45,13.000000,,2013-07-28 12:43:00,
2013-07-28 07:53:00,49.0,47.0,-100.00,NNE,19,4.0,14.0,93,0.00,,,0.45,13.000000,,2013-07-28 12:53:00,
2013-07-28 08:02:00,49.0,47.0,-100.00,NNE,19,4.0,14.0,93,0.00,,,0.45,13.000000,,2013-07-28 13:02:00,
2013-07-28 08:22:00,50.0,48.0,-100.00,North,1,4.0,9.0,92,0.00,,,0.40,44.000000,,2013-07-28 13:22:00,
2013-07-28 08:32:00,50.0,48.0,-100.00,North,1,4.0,9.0,92,0.00,,,0.40,44.000000,,2013-07-28 13:32:00,
2013-07-28 08:43:00,50.0,48.0,-100.00,North,1,4.0,9.0,92,0.00,,,0.40,44.000000,,2013-07-28 13:43:00,
2013-07-28 08:53:00,50.0,48.0,-100.00,North,1,4.0,9.0,92,0.00,,,0.40,44.000000,,2013-07-28 13:53:00,
2013-07-28 09:02:00,50.0,48.0,-100.00,North,1,4.0,9.0,92,0.00,,,0.40,44.000000,,2013-07-28 14:02:00,
2013-07-28 09:23:00,52.0,49.0,-100.00,North,3,4.0,9.0,89,0.00,,,0.34,115.000000,,2013-07-28 14:23:00,
2013-07-28 09:33:00,52.0,49.0,-100.00,North,3,4.0,9.0,89,0.00,,,0.34,115.000000,,2013-07-28 14:33:00,
2013-07-28 09:43:00,52.0,49.0,-100.00,North,3,4.0,9.0,89,0.00,,,0.34,115.000000,,2013-07-28 14:43:00,
2013-07-28 09:53:00,52.0,49.0,-100.00,North,3,4.0,9.0,89,0.00,,,0.34,115.000000,,2013-07-28 14:53:00,
2013-07-28 10:03:00,52.0,49.0,-100.00,North,3,4.0,9.0,89,0.00,,,0.34,115.000000,,2013-07-28 15:03:00,
2013-07-28 10:33:00,54.0,49.0,-100.00,NNE,13,5.0,10.0,84,0.00,,,0.31,184.000000,,2013-07-28 15:33:00,
2013-07-28 10:43:00,54.0,49.0,-100.00,NNE,13,5.0,10.0,84,0.00,,,0.31,184.000000,,2013-07-28 15:43:00,
2013-07-28 10:53:00,54.0,49.0,-100.00,NNE,13,5.0,10.0,84,0.00,,,0.31,184.000000,,2013-07-28 15:53:00,
2013-07-28 11:02:00,54.0,49.0,-100.00,NNE,13,5.0,10.0,84,0.00,,,0.31,184.000000,,2013-07-28 16:02:00,
2013-07-28 11:22:00,59.0,50.0,-100.00,NNE,31,5.0,13.0,72,0.00,,,0.19,442.000000,,2013-07-28 16:22:00,
2013-07-28 11:33:00,59.0,50.0,-100.00,NNE,31,5.0,13.0,72,0.00,,,0.19,442.000000,,2013-07-28 16:33:00,
2013-07-28 11:43:00,59.0,50.0,-100.00,NNE,31,5.0,13.0,72,0.00,,,0.19,442.000000,,2013-07-28 16:43:00,
2013-07-28 11:52:00,59.0,50.0,-100.00,NNE,31,5.0,13.0,72,0.00,,,0.19,442.000000,,2013-07-28 16:52:00,
2013-07-28 12:02:00,59.0,50.0,-100.00,NNE,31,5.0,13.0,72,0.00,,,0.19,442.000000,,2013-07-28 17:02:00,
2013-07-28 12:23:00,62.0,50.0,-100.00,NNE,21,6.0,14.0,64,0.00,,,0.14,751.000000,,2013-07-28 17:23:00,
2013-07-28 12:33:00,62.0,50.0,-100.00,NNE,21,6.0,14.0,64,0.00,,,0.14,751.000000,,2013-07-28 17:33:00,
2013-07-28 12:43:00,62.0,50.0,-100.00,NNE,21,6.0,14.0,64,0.00,,,0.14,751.000000,,2013-07-28 17:43:00,
2013-07-28 12:53:00,62.0,50.0,-100.00,NNE,21,6.0,14.0,64,0.00,,,0.14,751.000000,,2013-07-28 17:53:00,
2013-07-28 13:03:00,62.0,50.0,-100.00,NNE,21,6.0,14.0,64,0.00,,,0.14,751.000000,,2013-07-28 18:03:00,
2013-07-28 13:23:00,63.0,46.0,-100.00,North,351,6.0,13.0,54,0.00,,,0.11,822.000000,,2013-07-28 18:23:00,
2013-07-28 13:33:00,63.0,46.0,-100.00,North,351,6.0,13.0,54,0.00,,,0.11,822.000000,,2013-07-28 18:33:00,
2013-07-28 13:43:00,63.0,46.0,-100.00,North,351,6.0,13.0,54,0.00,,,0.11,822.000000,,2013-07-28 18:43:00,
2013-07-28 13:52:00,63.0,46.0,-100.00,North,351,6.0,13.0,54,0.00,,,0.11,822.000000,,2013-07-28 18:52:00,
2013-07-28 14:02:00,63.0,46.0,-100.00,North,351,6.0,13.0,54,0.00,,,0.11,822.000000,,2013-07-28 19:02:00,
2013-07-28 14:23:00,66.0,48.0,-100.00,NW,317,7.0,15.0,52,0.00,,,0.10,916.000000,,2013-07-28 19:23:00,
2013-07-28 14:33:00,66.0,48.0,-100.00,NW,317,7.0,15.0,52,0.00,,,0.10,916.000000,,2013-07-28 19:33:00,
2013-07-28 14:43:00,66.0,48.0,-100.00,NW,317,7.0,15.0,52,0.00,,,0.10,916.000000,,2013-07-28 19:43:00,
2013-07-28 14:52:00,66.0,48.0,-100.00,NW,317,7.0,15.0,52,0.00,,,0.10,916.000000,,2013-07-28 19:52:00,
2013-07-28 15:02:00,66.0,48.0,-100.00,NW,317,7.0,15.0,52,0.00,,,0.10,916.000000,,2013-07-28 20:02:00,
2013-07-28 15:23:00,68.0,49.0,-100.00,NNW,327,7.0,13.0,50,0.00,,,0.10,812.000000,,2013-07-28 20:23:00,
2013-07-28 15:33:00,68.0,49.0,-100.00,NNW,327,7.0,13.0,50,0.00,,,0.10,812.000000,,2013-07-28 20:33:00,
2013-07-28 15:43:00,68.0,49.0,-100.00,NNW,327,7.0,13.0,50,0.00,,,0.10,812.000000,,2013-07-28 20:43:00,
2013-07-28 15:53:00,68.0,49.0,-100.00,NNW,327,7.0,13.0,50,0.00,,,0.10,812.000000,,2013-07-28 20:53:00,
2013-07-28 16:03:00,68.0,49.0,-100.00,NNW,327,7.0,13.0,50,0.00,,,0.10,812.000000,,2013-07-28 21:03:00,
2013-07-28 16:23:00,69.0,46.0,-100.00,North,359,5.0,13.0,44,0.00,,,0.08,856.000000,,2013-07-28 21:23:00,
2013-07-28 16:33:00,69.0,46.0,-100.00,North,359,5.0,13.0,44,0.00,,,0.08,856.000000,,2013-07-28 21:33:00,
2013-07-28 16:44:00,69.0,46.0,-100.00,North,359,5.0,13.0,44,0.00,,,0.08,856.000000,,2013-07-28 21:44:00,
2013-07-28 16:52:00,69.0,46.0,-100.00,North,359,5.0,13.0,44,0.00,,,0.08,856.000000,,2013-07-28 21:52:00,
2013-07-28 17:02:00,69.0,46.0,-100.00,North,359,5.0,13.0,44,0.00,,,0.08,856.000000,,2013-07-28 22:02:00,
2013-07-28 17:32:00,69.0,46.0,-100.00,North,2,5.0,12.0,44,0.00,,,0.04,629.000000,,2013-07-28 22:32:00,
2013-07-28 17:43:00,69.0,46.0,-100.00,North,2,5.0,12.0,44,0.00,,,0.04,629.000000,,2013-07-28 22:43:00,
2013-07-28 17:52:00,69.0,46.0,-100.00,North,2,5.0,12.0,44,0.00,,,0.04,629.000000,,2013-07-28 22:52:00,
2013-07-28 18:03:00,69.0,46.0,-100.00,North,2,5.0,12.0,44,0.00,,,0.04,629.000000,,2013-07-28 23:03:00,
2013-07-28 18:22:00,70.0,45.0,-100.00,NNW,331,4.0,10.0,41,0.00,,,0.01,518.000000,,2013-07-28 23:22:00,
2013-07-28 18:33:00,70.0,45.0,-100.00,NNW,331,4.0,10.0,41,0.00,,,0.01,518.000000,,2013-07-28 23:33:00,
2013-07-28 18:43:00,70.0,45.0,-100.00,NNW,331,4.0,10.0,41,0.00,,,0.01,518.000000,,2013-07-28 23:43:00,
2013-07-28 18:53:00,70.0,45.0,-100.00,NNW,331,4.0,10.0,41,0.00,,,0.01,518.000000,,2013-07-28 23:53:00,
2013-07-28 19:03:00,70.0,45.0,-100.00,NNW,331,4.0,10.0,41,0.00,,,0.01,518.000000,,2013-07-29 00:03:00,
2013-07-28 19:22:00,69.0,44.0,-100.00,NNE,19,3.0,10.0,41,0.00,,,0.00,362.000000,,2013-07-29 00:22:00,
2013-07-28 19:32:00,69.0,44.0,-100.00,NNE,19,3.0,10.0,41,0.00,,,0.00,362.000000,,2013-07-29 00:32:00,
2013-07-28 19:43:00,69.0,44.0,-100.00,NNE,19,3.0,10.0,41,0.00,,,0.00,362.000000,,2013-07-29 00:43:00,
2013-07-28 19:52:00,69.0,44.0,-100.00,NNE,19,3.0,10.0,41,0.00,,,0.00,362.000000,,2013-07-29 00:52:00,
2013-07-28 20:02:00,69.0,44.0,-100.00,NNE,19,3.0,10.0,41,0.00,,,0.00,362.000000,,2013-07-29 01:02:00,
2013-07-28 20:04:00,64.0,45.0,-100.00,North,359,2.0,6.0,51,0.00,,,0.00,148.000000,,2013-07-29 01:04:00,
2013-07-28 20:29:00,64.0,45.0,-100.00,North,359,2.0,6.0,51,0.00,,,0.00,148.000000,,2013-07-29 01:29:00,
2013-07-28 20:38:00,64.0,45.0,-100.00,North,359,2.0,6.0,51,0.00,,,0.00,148.000000,,2013-07-29 01:38:00,
2013-07-28 20:47:00,64.0,45.0,-100.00,North,359,2.0,6.0,51,0.00,,,0.00,148.000000,,2013-07-29 01:47:00,
2013-07-28 21:00:00,64.0,45.0,-100.00,North,359,2.0,6.0,51,0.00,,,0.00,148.000000,,2013-07-29 02:00:00,
2013-07-28 21:27:00,59.0,46.0,-100.00,NW,326,1.0,3.0,62,0.00,,,0.00,12.000000,,2013-07-29 02:27:00,
2013-07-28 21:39:00,59.0,46.0,-100.00,NW,326,1.0,3.0,62,0.00,,,0.00,12.000000,,2013-07-29 02:39:00,
2013-07-28 21:49:00,59.0,46.0,-100.00,NW,326,1.0,3.0,62,0.00,,,0.00,12.000000,,2013-07-29 02:49:00,
2013-07-28 22:03:00,59.0,46.0,-100.00,NW,326,1.0,3.0,62,0.00,,,0.00,12.000000,,2013-07-29 03:03:00,
2013-07-28 22:26:00,58.0,47.0,-100.00,WNW,301,2.0,3.0,68,0.00,,,0.00,0.000000,,2013-07-29 03:26:00,
2013-07-28 22:37:00,58.0,47.0,-100.00,WNW,301,2.0,3.0,68,0.00,,,0.00,0.000000,,2013-07-29 03:37:00,
2013-07-28 22:49:00,58.0,47.0,-100.00,WNW,301,2.0,3.0,68,0.00,,,0.00,0.000000,,2013-07-29 03:49:00,
2013-07-28 22:58:00,58.0,47.0,-100.00,WNW,301,2.0,3.0,68,0.00,,,0.00,0.000000,,2013-07-29 03:58:00,
2013-07-28 23:02:00,58.0,47.0,-100.00,WNW,301,2.0,3.0,68,0.00,,,0.00,0.000000,,2013-07-29 04:02:00,
2013-07-28 23:22:00,57.0,48.0,-100.00,West,261,2.0,3.0,72,-99.99,,,0.00,0.000000,,2013-07-29 04:22:00,